Location: Burland Observatory
(39.4088°N, 105.4217°W)
Time: 05:43:48
(UTC-07:00)

Vanguard 2 Rocket - All Passes

Search period start: 06 December 2019 00:00
Search period end: 16 December 2019 00:00
Orbit: 554 x 3326 km, 32.9° (Epoch: 05 December)

Date Brightness Start Highest point End Pass type
(mag) Time Alt. Az. Time Alt. Az. Time Alt. Az.
06 Dec - 00:38:03 10° WSW 00:40:14 14° SSW 00:42:16 10° S night (unlit)
06 Dec - 16:50:23 10° SSW 17:01:02 24° SSE 17:08:24 10° ESE visible
06 Dec - 19:04:52 10° SW 19:15:35 42° SSE 19:21:53 10° E visible
06 Dec - 21:21:19 10° WSW 21:28:58 47° S 21:33:43 10° ESE visible
06 Dec - 23:37:12 10° WSW 23:41:15 22° SSW 23:44:30 10° SSE night (unlit)
07 Dec - 15:50:23 10° S 16:00:26 20° SSE 16:07:59 10° ESE daylight
07 Dec - 18:03:22 10° SW 18:15:30 38° SSE 18:22:49 10° E visible
07 Dec - 20:19:56 10° WSW 20:29:28 51° S 20:35:01 10° ESE visible
07 Dec - 22:36:25 10° W 22:42:13 34° SSW 22:46:14 10° SE night (unlit)
08 Dec - 14:51:37 10° S 14:59:38 15° SSE 15:06:17 10° ESE daylight
08 Dec - 17:02:02 10° SW 17:15:08 34° SSE 17:23:28 10° E visible
08 Dec - 19:18:14 10° WSW 19:29:41 51° S 19:36:12 10° E visible
08 Dec - 21:35:19 10° W 21:43:00 45° SSW 21:47:46 10° ESE visible
08 Dec - 23:52:05 10° WSW 23:54:58 15° SSW 23:57:26 10° S night (unlit)
09 Dec - 16:01:05 10° SSW 16:14:28 29° SSE 16:23:39 10° E daylight
09 Dec - 18:16:22 10° SW 18:29:36 48° SSE 18:37:14 10° E visible
09 Dec - 20:33:49 10° W 20:43:32 53° S 20:49:09 10° ESE visible
09 Dec - 22:50:45 10° W 22:56:01 26° SSW 22:59:50 10° SSE night (unlit)
10 Dec - 15:00:47 10° SSW 15:13:36 24° SSE 15:23:11 10° ESE daylight
10 Dec - 17:14:31 10° SW 17:29:11 44° SSE 17:38:02 10° E visible
10 Dec - 19:31:55 10° WSW 19:43:46 57° S 19:50:24 10° ESE visible
10 Dec - 21:49:26 10° W 21:56:55 38° SSW 22:01:39 10° SE visible
11 Dec - 14:01:40 10° S 14:12:34 18° SE 14:21:35 10° ESE daylight
11 Dec - 16:12:56 10° SW 16:28:28 39° SSE 16:38:30 10° E daylight
11 Dec - 18:29:46 10° WSW 18:43:40 57° S 18:51:29 10° E visible
11 Dec - 20:47:48 10° W 20:57:32 50° SSW 21:03:11 10° ESE visible
11 Dec - 23:05:29 10° WSW 23:09:39 18° SW 23:12:52 10° S night (unlit)
12 Dec - 13:05:02 10° SSE 13:11:28 12° SE 13:17:24 10° ESE daylight
12 Dec - 15:11:51 10° SSW 15:27:28 34° SSE 15:38:31 10° E daylight
12 Dec - 17:27:33 10° WSW 17:43:13 54° SSE 17:52:22 10° E visible
12 Dec - 19:45:46 10° W 19:57:48 58° S 20:04:31 10° ESE visible
12 Dec - 22:03:41 10° W 22:10:40 30° SSW 22:15:15 10° SSE visible
13 Dec - 14:11:34 10° SSW 14:26:19 27° SSE 14:37:49 10° E daylight
13 Dec - 16:25:30 10° SW 16:42:24 49° SSE 16:52:58 10° E daylight
13 Dec - 18:43:26 10° WSW 18:57:42 61° S 19:05:40 10° ESE visible
13 Dec - 21:01:52 10° W 21:11:23 43° SSW 21:17:03 10° SE visible
13 Dec - 23:21:45 10° WSW 23:23:03 11° SW 23:24:16 10° SSW night (unlit)
14 Dec - 13:12:24 10° S 13:25:07 21° SE 13:36:03 10° ESE daylight
14 Dec - 15:23:54 10° SW 15:41:19 44° SSE 15:53:11 10° E daylight
14 Dec - 17:40:58 10° WSW 17:57:13 61° S 18:06:35 10° E visible
14 Dec - 19:59:44 10° W 20:11:46 54° SSW 20:18:32 10° ESE visible
14 Dec - 22:18:17 10° W 22:24:11 21° SW 22:28:23 10° S visible
15 Dec - 12:15:19 10° SSE 12:23:59 14° SE 12:32:06 10° ESE daylight
15 Dec - 14:22:55 10° SSW 14:40:01 37° SSE 14:52:55 10° E daylight
15 Dec - 16:38:37 10° WSW 16:56:21 58° SSE 17:07:14 10° E visible
15 Dec - 18:57:17 10° W 19:11:43 62° S 19:19:45 10° ESE visible
15 Dec - 21:16:04 10° W 21:25:04 34° SSW 21:30:40 10° SSE visible
